TimeEST,TemperatureF,Dew PointF,Humidity,Sea Level PressureIn,VisibilityMPH,Wind Direction,Wind SpeedMPH,Gust SpeedMPH,PrecipitationIn,Events,Conditions,WindDirDegrees,DateUTC
12:54 AM,41.0,23.0,49,30.07,10.0,West,19.6,38.0,N/A,,Scattered Clouds,280,2013-01-10 05:54:00
1:54 AM,39.0,25.0,57,30.11,10.0,WNW,28.8,50.6,N/A,,Mostly Cloudy,290,2013-01-10 06:54:00
2:54 AM,37.9,24.1,57,30.12,10.0,WNW,28.8,39.1,N/A,,Clear,300,2013-01-10 07:54:00
3:54 AM,37.9,23.0,55,30.17,10.0,WNW,20.7,35.7,N/A,,Clear,300,2013-01-10 08:54:00
4:54 AM,37.0,21.9,54,30.20,10.0,WNW,18.4,26.5,N/A,,Clear,290,2013-01-10 09:54:00
5:54 AM,35.1,23.0,61,30.25,10.0,WNW,15.0,24.2,N/A,,Clear,300,2013-01-10 10:54:00
6:54 AM,34.0,21.9,61,30.30,10.0,NW,5.8,-,N/A,,Clear,310,2013-01-10 11:54:00
7:54 AM,35.1,19.0,52,30.32,10.0,WNW,17.3,-,N/A,,Clear,300,2013-01-10 12:54:00
8:54 AM,36.0,19.9,52,30.35,10.0,WNW,15.0,21.9,N/A,,Clear,290,2013-01-10 13:54:00
9:54 AM,37.0,19.9,50,30.37,10.0,NW,15.0,21.9,N/A,,Clear,310,2013-01-10 14:54:00
10:54 AM,39.0,19.9,46,30.36,10.0,WNW,17.3,26.5,N/A,,Clear,300,2013-01-10 15:54:00
11:54 AM,39.9,19.9,45,30.35,10.0,NW,15.0,28.8,N/A,,Clear,310,2013-01-10 16:54:00
12:54 PM,39.9,19.9,45,30.34,10.0,WNW,26.5,35.7,N/A,,Clear,300,2013-01-10 17:54:00
1:54 PM,41.0,21.0,45,30.38,10.0,NW,23.0,29.9,N/A,,Clear,310,2013-01-10 18:54:00
2:54 PM,41.0,19.0,41,30.40,10.0,NW,21.9,26.5,N/A,,Clear,310,2013-01-10 19:54:00
3:54 PM,39.9,19.9,45,30.42,10.0,NW,15.0,23.0,N/A,,Clear,310,2013-01-10 20:54:00
4:54 PM,39.0,19.9,46,30.45,10.0,NW,8.1,-,N/A,,Clear,310,2013-01-10 21:54:00
5:54 PM,37.9,19.9,48,30.46,10.0,NW,10.4,-,N/A,,Clear,320,2013-01-10 22:54:00
6:54 PM,35.1,19.9,54,30.48,10.0,NW,6.9,-,N/A,,Clear,320,2013-01-10 23:54:00
7:54 PM,35.1,21.0,57,30.50,10.0,NNW,6.9,-,N/A,,Clear,330,2013-01-11 00:54:00
8:54 PM,32.0,21.0,64,30.53,10.0,WNW,8.1,-,N/A,,Clear,300,2013-01-11 01:54:00
9:54 PM,34.0,21.0,59,30.53,10.0,NNW,10.4,-,N/A,,Clear,340,2013-01-11 02:54:00
10:54 PM,33.1,21.0,61,30.53,10.0,Variable,6.9,19.6,N/A,,Clear,0,2013-01-11 03:54:00
11:54 PM,32.0,19.9,61,30.53,10.0,NNW,6.9,-,N/A,,Clear,340,2013-01-11 04:54:00